CW4629 Weather Reports


time (UTC)temp
F
wind
direction
speed
knots
gust
knots
rain 1hr
in
rain 24hr
in
rain mn
in
humidity
%
barometer
mb
20260904185326 91 196 7.8 13.0 0.00 0.00 0.00 20 1014.7
20260904183326 91 195 10.4 13.9 0.00 0.00 0.00 21 1014.8
20260904182327 90 222 5.2 7.8 0.00 0.00 0.00 21 1014.9
20260904182241 91 244 7.0 11.3 0.00 0.00 0.00 21 1014.9
20260904181240 91 162 4.3 7.0 0.00 0.00 0.00 20 1015.3
20260904180227 89 175 3.5 5.2 0.00 0.00 0.00 21 1015.3
20260904174243 89 197 4.3 7.0 0.00 0.00 0.00 21 1015.5
20260904173225 88 132 2.6 6.1 0.00 0.00 0.00 22 1015.4
20260904171243 88 190 5.2 7.8 0.00 0.00 0.00 21 1015.6
20260904170242 87 129 2.6 5.2 0.00 0.00 0.00 22 1015.7
20260904165227 86 114 4.3 6.1 0.00 0.00 0.00 22 1015.7
20260904164241 85 106 3.5 6.1 0.00 0.00 0.00 24 1015.9
20260904163242 84 200 1.7 3.5 0.00 0.00 0.00 25 1015.9
20260904162226 83 188 3.5 5.2 0.00 0.00 0.00 24 1016.0
20260904161226 83 202 2.6 3.5 0.00 0.00 0.00 25 1015.9
20260904160227 82 180 2.6 3.5 0.00 0.00 0.00 26 1015.9
20260904154240 80 179 1.7 3.5 0.00 0.00 0.00 26 1016.0
20260904152324 78 180 0.0 1.7 0.00 0.00 0.00 30 1016.0
20260904151326 77 360 0.0 0.0 0.00 0.00 0.00 32 1016.0
20260904150342 76 360 0.0 0.0 0.00 0.00 0.00 32 1015.9
20260904145425 75 360 0.9 0.9 0.00 0.00 0.00 35 1016.0
20260904144524 73 360 0.0 0.0 0.00 0.00 0.00 38 1016.0
20260904143527 70 315 0.0 0.0 0.00 0.00 0.00 40 1016.0
20260904142525 69 318 0.9 1.7 0.00 0.00 0.00 40 1015.9
20260904141624 68 337 0.0 0.0 0.00 0.00 0.00 41 1016.0
20260904135625 64 360 0.0 0.9 0.00 0.00 0.00 44 1015.6
20260904135542 64 360 0.0 0.0 0.00 0.00 0.00 44 1015.6
20260904134642 63 360 0.9 1.7 0.00 0.00 0.00 48 1015.5
20260904133626 61 360 0.0 0.9 0.00 0.00 0.00 49 1015.4
20260904132540 60 360 0.9 1.7 0.00 0.00 0.00 52 1015.3
20260904131525 60 22 0.0 0.0 0.00 0.00 0.00 51 1015.1
20260904130540 61 22 0.0 0.0 0.00 0.00 0.00 50 1014.9
20260904125526 61 337 0.0 0.0 0.00 0.00 0.00 48 1014.9
20260904124526 62 90 0.0 0.9 0.00 0.00 0.00 47 1014.6
20260904122526 63 90 0.0 0.0 0.00 0.00 0.00 43 1014.5
20260904121623 62 11 1.7 1.7 0.00 0.00 0.00 43 1014.5
20260904121527 62 360 1.7 1.7 0.00 0.00 0.00 43 1014.4
20260904120624 62 22 0.9 0.9 0.00 0.00 0.00 42 1014.4
20260904113742 63 157 0.0 0.0 0.00 0.00 0.00 41 1014.2
20260904112826 64 270 0.0 0.0 0.00 0.00 0.00 40 1014.4
20260904110943 66 270 0.0 0.9 0.00 0.00 0.00 36 1014.2
20260904110025 66 75 1.7 2.6 0.00 0.00 0.00 35 1014.3
20260904105026 66 168 0.0 0.0 0.00 0.00 0.00 34 1014.3
20260904104123 67 90 0.0 0.0 0.00 0.00 0.00 32 1013.9
20260904104040 67 90 0.0 0.0 0.00 0.00 0.00 32 1014.0
20260904103126 64 66 2.6 4.3 0.00 0.00 0.00 39 1013.8
20260904102224 64 360 0.0 1.7 0.00 0.00 0.00 38 1013.8
20260904101224 65 360 0.0 0.0 0.00 0.00 0.00 35 1013.8
20260904100240 65 360 1.7 2.6 0.00 0.00 0.00 34 1013.5
20260904095324 65 247 0.0 0.9 0.00 0.00 0.00 35 1013.4
20260904094325 66 292 0.0 0.0 0.00 0.00 0.00 35 1013.4
20260904093341 67 341 2.6 3.5 0.00 0.00 0.00 30 1013.3
20260904092426 67 346 1.7 2.6 0.00 0.00 0.00 31 1013.4
20260904090424 68 247 1.7 1.7 0.00 0.00 0.00 28 1013.4
20260904085441 67 209 0.0 0.9 0.00 0.00 0.00 29 1013.3
20260904084525 69 360 0.0 1.7 0.00 0.00 0.00 26 1013.3
20260904083526 70 360 0.0 1.7 0.00 0.00 0.00 23 1013.5
20260904082623 69 135 0.0 1.7 0.00 0.00 0.00 22 1013.3
20260904081642 69 225 1.7 2.6 0.00 0.00 0.00 23 1013.5
20260904080624 69 225 0.9 0.9 0.00 0.00 0.00 23 1013.5
20260904074642 70 247 0.0 0.0 0.00 0.00 0.00 23 1013.3
20260904073725 71 247 0.0 1.7 0.00 0.00 0.00 23 1013.4
20260904072726 73 225 0.0 0.9 0.00 0.00 0.00 22 1013.3
20260904071724 72 67 1.7 3.5 0.00 0.00 0.00 20 1013.1
20260904070740 71 45 0.0 0.0 0.00 0.00 0.00 23 1013.1
20260904065740 69 25 1.7 3.5 0.00 0.00 0.00 27 1013.1
20260904063740 70 22 1.7 1.7 0.00 0.00 0.00 25 1013.1
20260904062824 70 360 0.0 0.0 0.00 0.00 0.00 25 1013.1
20260904055915 71 202 0.0 0.9 0.00 0.00 0.00 23 1012.9
20260904054031 70 301 2.6 3.5 0.00 0.00 0.00 28 1012.9
20260904053033 71 313 1.7 3.5 0.00 0.00 0.00 25 1012.8
20260904052015 72 270 0.0 0.0 0.00 0.00 0.00 22 1012.7
20260904051031 72 247 0.0 0.0 0.00 0.00 0.00 24 1012.8
20260904050015 73 349 0.9 2.6 0.00 0.00 0.00 22 1012.8
20260904045032 72 360 0.0 0.9 0.00 0.00 0.00 24 1012.8
20260904044030 73 337 0.0 0.9 0.00 0.00 0.00 23 1012.9
20260904043015 74 360 0.0 0.9 0.00 0.00 0.00 21 1012.8
20260904042033 75 292 0.0 0.0 0.00 0.00 0.00 20 1012.6
20260904040130 76 22 0.0 0.9 0.00 0.00 0.00 16 1012.4
20260904034215 79 90 0.9 0.9 0.00 0.00 0.00 14 1012.3
20260904033217 80 90 0.9 0.9 0.00 0.00 0.00 14 1012.2
20260904032230 82 90 0.0 0.0 0.00 0.00 0.00 11 1012.1
20260904031315 82 90 0.0 0.0 0.00 0.00 0.00 10 1012.0
20260904030314 82 90 0.0 0.0 0.00 0.00 0.00 10 1012.0
20260904024415 84 202 0.0 0.0 0.00 0.00 0.00 8 1011.5
20260904023515 86 202 0.0 0.0 0.00 0.00 0.00 7 1011.4
20260904022517 86 234 1.7 3.5 0.00 0.00 0.00 7 1011.3
20260904021615 87 222 2.6 6.1 0.00 0.00 0.00 7 1011.3
20260904020617 88 212 3.5 5.2 0.00 0.00 0.00 5 1011.4
20260904020530 88 203 5.2 7.0 0.00 0.00 0.00 5 1011.3
20260904015615 89 230 4.3 7.0 0.00 0.00 0.00 6 1011.2
20260904012715 91 233 5.2 7.0 0.00 0.00 0.00 6 1011.2
20260904012629 91 234 6.1 9.6 0.00 0.00 0.00 6 1011.2
20260904011631 92 240 3.5 6.1 0.00 0.00 0.00 5 1011.0
20260904010717 93 211 6.1 10.4 0.00 0.00 0.00 5 1011.1
20260904005713 94 196 5.2 7.8 0.00 0.00 0.00 6 1011.2
20260904004732 94 195 3.5 5.2 0.00 0.00 0.00 6 1011.2
20260904002814 94 183 8.7 13.9 0.00 0.00 0.00 5 1011.1
20260904001831 95 179 6.1 10.4 0.00 0.00 0.00 5 1011.1
20260904000832 95 169 4.3 7.0 0.00 0.00 0.00 4 1011.2
20260903235914 95 180 4.3 8.7 0.00 0.00 0.00 5 1011.3
20260903234914 95 183 7.8 12.2 0.00 0.00 0.00 5 1011.2
20260903234832 95 184 7.0 10.4 0.00 0.00 0.00 4 1011.3
20260903233913 95 204 7.8 11.3 0.00 0.00 0.00 5 1011.4
20260903232916 95 195 7.8 10.4 0.00 0.00 0.00 6 1011.6
20260903232014 94 196 5.2 7.8 0.00 0.00 0.00 6 1011.6
20260903230115 94 241 10.4 13.9 0.00 0.00 0.00 6 1011.8
20260903225131 95 253 12.2 15.6 0.00 0.00 0.00 7 1011.8
20260903224213 95 174 5.2 7.8 0.00 0.00 0.00 6 1011.9
20260903223232 95 194 5.2 9.6 0.00 0.00 0.00 6 1012.1
20260903222232 94 168 7.0 12.2 0.00 0.00 0.00 8 1012.2
20260903221216 93 294 0.9 5.2 0.00 0.00 0.00 8 1012.4
20260903220214 94 160 3.5 7.8 0.00 0.00 0.00 8 1012.5
20260903215229 93 243 4.3 7.8 0.00 0.00 0.00 7 1012.7
20260903214313 92 229 4.3 7.0 0.00 0.00 0.00 8 1012.8
20260903212413 92 353 0.9 3.5 0.00 0.00 0.00 8 1012.9
20260903211429 93 288 4.3 6.1 0.00 0.00 0.00 8 1013.0
20260903210515 93 228 5.2 10.4 0.00 0.00 0.00 8 1013.1
20260903205514 93 217 7.0 8.7 0.00 0.00 0.00 9 1013.1
20260903205432 93 163 2.6 7.0 0.00 0.00 0.00 8 1013.1
20260903203530 93 212 8.7 13.0 0.00 0.00 0.00 8 1013.6
20260903202515 92 107 0.0 1.7 0.00 0.00 0.00 8 1013.6
20260903194614 92 175 6.1 10.4 0.00 0.00 0.00 8 1014.2
20260903193631 92 105 1.7 4.3 0.00 0.00 0.00 10 1014.2
20260903193513 92 110 4.3 6.1 0.00 0.00 0.00 9 1014.3
20260903192516 91 191 5.2 8.7 0.00 0.00 0.00 9 1014.6
20260903191515 90 209 2.6 4.3 0.00 0.00 0.00 11 1014.6
20260903190514 91 198 0.9 3.5 0.00 0.00 0.00 11 1014.8